User: anonymous
Location: Unspecified
(0.0000°N, 0.0000°E)
Time: 19:35:11
(UTC+02:00)
Language:

ISS - Orbit

View from above orbital plane
View from above orbital plane
View from above satellite
View from above satellite

Ground track
Ground track

The orbit data is extracted from the following two-line orbital elements,

1 25544U 98067A   14212.46052806  .00003949  00000-0  75869-4 0  8062
2 25544 051.6469 240.1336 0006276 314.0957 186.5800 15.50488186898191
Epoch (UTC): 31 July 2014 11:03:09
Eccentricity: 0.0006276
inclination: 51.6469°
perigee height: 411 km
apogee height: 419 km
right ascension of ascending node: 240.1336°
argument of perigee: 314.0957°
revolutions per day: 15.50488186
mean anomaly at epoch: 186.5800°
orbit number at epoch: 89819

The dashed part of the orbit path shows where the satellite is in the earth's shadow,  

DLR